^^
Saratoga-Weather Station Historical Data
Daily Summary for February 19, 2020 Units:  Metric    English   Both
Daily Weekly Monthly Yearly Custom
  High: Low: Average:
Temperature: 25.4 °C 13.4 °C 19.3 °C
Dew Point: 15.7 °C 9 °C 12.2 °C
Humidity: 78% 49% 64%
Wind Speed: 6.4km/h 0km/h 0.8km/h
Wind Gust: 12.9km/h - -
Wind- - ESE
Pressure: 1017.6 hPa 1013.2 hPa -
Precipitation: 0.0 mm    
Historical Graphs
 
 
Tabular Data for February 19, 2020
Time Temperature Dew Point Pressure Wind Wind Speed Wind Gust Humidity Rainfall Rate (Hourly) solar
00:01 16.9 °C 11.8 °C 1017.6 hPa Calm     72% 0.0 mm 0 W/m2
00:06 16.8 °C 11.5 °C 1017.6 hPa East 1.4 km/h 1.6 km/h 71% 0.0 mm 0 W/m2
00:11 16.9 °C 11.6 °C 1017.6 hPa Calm   3.2 km/h 71% 0.0 mm 0 W/m2
00:16 17.1 °C 11.8 °C 1017.6 hPa Calm   1.6 km/h 71% 0.0 mm 0 W/m2
00:21 17.1 °C 11.6 °C 1017.6 hPa Calm   1.6 km/h 70% 0.0 mm 0 W/m2
00:26 17.1 °C 11.6 °C 1017.6 hPa SE 1.4 km/h 1.6 km/h 70% 0.0 mm 0 W/m2
00:31 17.1 °C 11.6 °C 1017.6 hPa Calm   1.6 km/h 70% 0.0 mm 0 W/m2
00:36 17.1 °C 11.6 °C 1017.6 hPa Calm   3.2 km/h 70% 0.0 mm 0 W/m2
00:41 17 °C 11.5 °C 1017.6 hPa Calm   1.6 km/h 70% 0.0 mm 0 W/m2
00:46 17 °C 11.5 °C 1017.6 hPa Calm     70% 0.0 mm 0 W/m2
00:51 16.9 °C 11.4 °C 1017.6 hPa SE 1.4 km/h 1.6 km/h 70% 0.0 mm 0 W/m2
00:56 16.8 °C 11.3 °C 1017.6 hPa SE 1.4 km/h 3.2 km/h 70% 0.0 mm 0 W/m2
01:01 16.8 °C 11.3 °C 1017.6 hPa Calm   3.2 km/h 70% 0.0 mm 0 W/m2
01:06 16.8 °C 11.3 °C 1017.6 hPa Calm   1.6 km/h 70% 0.0 mm 0 W/m2
01:11 16.8 °C 11.1 °C 1017.6 hPa Calm   3.2 km/h 69% 0.0 mm 0 W/m2
01:16 16.7 °C 11 °C 1017.6 hPa Calm   1.6 km/h 69% 0.0 mm 0 W/m2
01:21 16.7 °C 11.2 °C 1017.6 hPa Calm     70% 0.0 mm 0 W/m2
01:26 16.6 °C 11.1 °C 1017.6 hPa Calm     70% 0.0 mm 0 W/m2
01:31 16.4 °C 10.9 °C 1017.6 hPa Calm     70% 0.0 mm 0 W/m2
01:36 16.3 °C 11 °C 1017.6 hPa Calm   3.2 km/h 71% 0.0 mm 0 W/m2
01:41 16.2 °C 10.9 °C 1017.6 hPa Calm     71% 0.0 mm 0 W/m2
01:46 16.1 °C 11.1 °C 1017.3 hPa Calm   1.6 km/h 72% 0.0 mm 0 W/m2
01:51 16 °C 11 °C 1017.3 hPa Calm     72% 0.0 mm 0 W/m2
01:56 15.9 °C 10.9 °C 1017.3 hPa Calm   1.6 km/h 72% 0.0 mm 0 W/m2
02:01 15.8 °C 10.8 °C 1017.3 hPa Calm     72% 0.0 mm 0 W/m2
02:06 15.8 °C 10.8 °C 1017.3 hPa Calm     72% 0.0 mm 0 W/m2
02:11 15.8 °C 10.8 °C 1017.3 hPa ENE 1.4 km/h 1.6 km/h 72% 0.0 mm 0 W/m2
02:16 15.8 °C 10.8 °C 1017.3 hPa Calm   1.6 km/h 72% 0.0 mm 0 W/m2
02:21 15.9 °C 10.6 °C 1017.3 hPa Calm   1.6 km/h 71% 0.0 mm 0 W/m2
02:26 16.1 °C 10.8 °C 1016.9 hPa Calm   3.2 km/h 71% 0.0 mm 0 W/m2
02:31 16.3 °C 10.8 °C 1017.3 hPa Calm     70% 0.0 mm 0 W/m2
02:36 16.3 °C 10.8 °C 1017.3 hPa Calm   1.6 km/h 70% 0.0 mm 0 W/m2
02:41 16.2 °C 10.7 °C 1016.9 hPa Calm   1.6 km/h 70% 0.0 mm 0 W/m2
02:46 16.2 °C 10.7 °C 1016.9 hPa Calm     70% 0.0 mm 0 W/m2
02:51 16.1 °C 10.6 °C 1016.9 hPa Calm     70% 0.0 mm 0 W/m2
02:56 16 °C 10.7 °C 1016.9 hPa Calm     71% 0.0 mm 0 W/m2
03:01 15.9 °C 10.6 °C 1016.9 hPa Calm     71% 0.0 mm 0 W/m2
03:06 15.7 °C 10.7 °C 1016.9 hPa Calm     72% 0.0 mm 0 W/m2
03:11 15.6 °C 10.6 °C 1016.9 hPa Calm   1.6 km/h 72% 0.0 mm 0 W/m2
03:16 15.6 °C 10.8 °C 1016.9 hPa Calm     73% 0.0 mm 0 W/m2
03:21 15.4 °C 10.6 °C 1016.9 hPa Calm   1.6 km/h 73% 0.0 mm 0 W/m2
03:26 15.4 °C 10.6 °C 1016.9 hPa Calm     73% 0.0 mm 0 W/m2
03:31 15.3 °C 10.5 °C 1016.9 hPa Calm   1.6 km/h 73% 0.0 mm 0 W/m2
03:37 15.2 °C 10.6 °C 1016.9 hPa Calm     74% 0.0 mm 0 W/m2
03:42 15.2 °C 10.6 °C 1016.9 hPa Calm   3.2 km/h 74% 0.0 mm 0 W/m2
03:47 15.2 °C 10.6 °C 1016.6 hPa SE 1.4 km/h 1.6 km/h 74% 0.0 mm 0 W/m2
03:52 15.2 °C 10.6 °C 1016.6 hPa Calm   1.6 km/h 74% 0.0 mm 0 W/m2
03:57 15.2 °C 10.6 °C 1016.6 hPa Calm   1.6 km/h 74% 0.0 mm 0 W/m2
04:02 15.1 °C 10.5 °C 1016.6 hPa Calm   1.6 km/h 74% 0.0 mm 0 W/m2
04:07 15.1 °C 10.7 °C 1016.6 hPa Calm   3.2 km/h 75% 0.0 mm 0 W/m2
04:12 15 °C 10.6 °C 1016.6 hPa SE 1.4 km/h 1.6 km/h 75% 0.0 mm 0 W/m2
04:17 14.9 °C 10.5 °C 1016.6 hPa Calm   3.2 km/h 75% 0.0 mm 0 W/m2
04:22 14.9 °C 10.5 °C 1016.3 hPa Calm     75% 0.0 mm 0 W/m2
04:27 14.8 °C 10.4 °C 1016.3 hPa Calm     75% 0.0 mm 0 W/m2
04:32 14.8 °C 10.4 °C 1016.3 hPa Calm     75% 0.0 mm 0 W/m2
04:37 14.7 °C 10.5 °C 1016.3 hPa Calm     76% 0.0 mm 0 W/m2
04:42 14.7 °C 10.5 °C 1016.3 hPa SE 1.4 km/h 1.6 km/h 76% 0.0 mm 0 W/m2
04:47 14.7 °C 10.5 °C 1016.3 hPa Calm     76% 0.0 mm 0 W/m2
04:52 14.6 °C 10.4 °C 1016.3 hPa Calm     76% 0.0 mm 0 W/m2
04:57 14.6 °C 10.4 °C 1016.3 hPa Calm     76% 0.0 mm 0 W/m2
05:02 14.5 °C 10.3 °C 1016.3 hPa Calm     76% 0.0 mm 0 W/m2
05:07 14.4 °C 10.4 °C 1016.3 hPa Calm   1.6 km/h 77% 0.0 mm 0 W/m2
05:12 14.4 °C 10.4 °C 1016.3 hPa Calm     77% 0.0 mm 0 W/m2
05:17 14.3 °C 10.3 °C 1016.3 hPa Calm   1.6 km/h 77% 0.0 mm 0 W/m2
05:22 14.2 °C 10.2 °C 1016.3 hPa Calm     77% 0.0 mm 0 W/m2
05:27 14.2 °C 10.2 °C 1016.3 hPa Calm     77% 0.0 mm 0 W/m2
05:32 14.2 °C 10.2 °C 1016.3 hPa Calm   4.8 km/h 77% 0.0 mm 0 W/m2
05:37 14.2 °C 10.2 °C 1016.3 hPa Calm     77% 0.0 mm 0 W/m2
05:42 14.3 °C 10.1 °C 1016.3 hPa Calm   1.6 km/h 76% 0.0 mm 0 W/m2
05:47 14.3 °C 10.1 °C 1016.3 hPa Calm     76% 0.0 mm 0 W/m2
05:52 14.3 °C 10.1 °C 1016.3 hPa Calm     76% 0.0 mm 0 W/m2
05:57 14.3 °C 10.1 °C 1016.3 hPa Calm     76% 0.0 mm 0 W/m2
06:02 14.2 °C 10 °C 1016.3 hPa Calm     76% 0.0 mm 0 W/m2
06:07 14.2 °C 10 °C 1016.3 hPa Calm     76% 0.0 mm 0 W/m2
06:12 14.1 °C 9.9 °C 1016.3 hPa Calm     76% 0.0 mm 0 W/m2
06:17 14 °C 10 °C 1016.3 hPa Calm     77% 0.0 mm 0 W/m2
06:22 13.9 °C 9.9 °C 1016.3 hPa Calm     77% 0.0 mm 0 W/m2
06:27 13.8 °C 9.8 °C 1016.3 hPa Calm     77% 0.0 mm 0 W/m2
06:32 13.8 °C 9.8 °C 1016.3 hPa Calm     77% 0.0 mm 0 W/m2
06:37 13.7 °C 9.9 °C 1016.6 hPa Calm     78% 0.0 mm 0 W/m2
06:42 13.7 °C 9.9 °C 1016.6 hPa Calm     78% 0.0 mm 0 W/m2
06:47 13.7 °C 9.9 °C 1016.6 hPa Calm     78% 0.0 mm 0 W/m2
06:52 13.6 °C 9.8 °C 1016.6 hPa Calm     78% 0.0 mm 0 W/m2
06:57 13.5 °C 9.7 °C 1016.6 hPa Calm     78% 0.0 mm 0 W/m2
07:02 13.4 °C 9.6 °C 1016.6 hPa Calm     78% 0.0 mm 0 W/m2
07:07 13.4 °C 9.6 °C 1016.6 hPa Calm     78% 0.0 mm 0 W/m2
07:12 13.4 °C 9.6 °C 1016.6 hPa Calm     78% 0.0 mm 0 W/m2
07:17 13.4 °C 9.6 °C 1016.6 hPa Calm     78% 0.0 mm 0 W/m2
07:22 13.4 °C 9.6 °C 1016.6 hPa Calm     78% 0.0 mm 5 W/m2
07:28 13.5 °C 9.7 °C 1016.9 hPa Calm     78% 0.0 mm 7 W/m2
07:33 13.6 °C 9.8 °C 1016.9 hPa Calm   1.6 km/h 78% 0.0 mm 11 W/m2
07:38 13.7 °C 9.7 °C 1016.9 hPa Calm   1.6 km/h 77% 0.0 mm 12 W/m2
07:43 13.8 °C 9.8 °C 1016.9 hPa Calm     77% 0.0 mm 18 W/m2
07:48 13.9 °C 9.9 °C 1016.9 hPa Calm   1.6 km/h 77% 0.0 mm 21 W/m2
07:53 13.9 °C 9.7 °C 1016.9 hPa Calm     76% 0.0 mm 28 W/m2
07:58 14 °C 9.8 °C 1016.9 hPa SE 1.4 km/h 1.6 km/h 76% 0.0 mm 32 W/m2
08:03 14.1 °C 9.9 °C 1016.9 hPa ENE 1.4 km/h 3.2 km/h 76% 0.0 mm 33 W/m2
08:08 14.2 °C 9.8 °C 1016.9 hPa East 3.2 km/h 3.2 km/h 75% 0.0 mm 32 W/m2
08:13 14.4 °C 9.8 °C 1016.9 hPa East 3.2 km/h 3.2 km/h 74% 0.0 mm 28 W/m2
08:18 14.5 °C 9.7 °C 1016.9 hPa Calm   4.8 km/h 73% 0.0 mm 26 W/m2
08:23 14.6 °C 9.6 °C 1016.9 hPa Calm   1.6 km/h 72% 0.0 mm 26 W/m2
08:28 14.7 °C 9.7 °C 1016.9 hPa NE 1.4 km/h 1.6 km/h 72% 0.0 mm 30 W/m2
08:33 14.7 °C 9.5 °C 1016.9 hPa Calm   3.2 km/h 71% 0.0 mm 74 W/m2
08:38 14.8 °C 9.4 °C 1016.9 hPa Calm   1.6 km/h 70% 0.0 mm 44 W/m2
08:43 14.8 °C 9.4 °C 1016.9 hPa Calm   3.2 km/h 70% 0.0 mm 40 W/m2
08:48 14.9 °C 9 °C 1016.9 hPa NE 1.4 km/h 4.8 km/h 68% 0.0 mm 42 W/m2
08:53 15.2 °C 9.1 °C 1016.9 hPa Calm   4.8 km/h 67% 0.0 mm 46 W/m2
08:58 15.4 °C 9.3 °C 1017.3 hPa South 1.4 km/h 3.2 km/h 67% 0.0 mm 51 W/m2
09:03 15.6 °C 9.3 °C 1017.3 hPa Calm   4.8 km/h 66% 0.0 mm 125 W/m2
09:08 15.7 °C 9.4 °C 1017.3 hPa Calm   4.8 km/h 66% 0.0 mm 144 W/m2
09:13 15.8 °C 9.2 °C 1017.3 hPa ESE 1.4 km/h 3.2 km/h 65% 0.0 mm 98 W/m2
09:18 16.1 °C 9.3 °C 1017.3 hPa NE 1.4 km/h 3.2 km/h 64% 0.0 mm 56 W/m2
09:23 16.3 °C 9.5 °C 1017.3 hPa East 3.2 km/h 4.8 km/h 64% 0.0 mm 62 W/m2
09:28 16.6 °C 9.5 °C 1017.3 hPa ENE 1.4 km/h 4.8 km/h 63% 0.0 mm 69 W/m2
09:33 16.8 °C 9.5 °C 1017.3 hPa East 3.2 km/h 4.8 km/h 62% 0.0 mm 72 W/m2
09:38 16.9 °C 9.3 °C 1017.3 hPa NE 6.4 km/h 6.4 km/h 61% 0.0 mm 76 W/m2
09:43 17.1 °C 9.5 °C 1017.3 hPa SE 1.4 km/h 4.8 km/h 61% 0.0 mm 72 W/m2
09:48 17.3 °C 9.7 °C 1017.3 hPa Calm   1.6 km/h 61% 0.0 mm 72 W/m2
09:53 17.4 °C 9.3 °C 1017.3 hPa NNE 1.4 km/h 6.4 km/h 59% 0.0 mm 70 W/m2
09:58 17.4 °C 9.6 °C 1017.3 hPa East 4.7 km/h 6.4 km/h 60% 0.0 mm 70 W/m2
10:03 17.6 °C 9.5 °C 1017.3 hPa East 3.2 km/h 8 km/h 59% 0.0 mm 70 W/m2
10:08 17.7 °C 9.6 °C 1017.3 hPa NE 1.4 km/h 8 km/h 59% 0.0 mm 69 W/m2
10:13 17.8 °C 9.7 °C 1017.3 hPa NW 3.2 km/h 8 km/h 59% 0.0 mm 70 W/m2
10:18 17.9 °C 9.8 °C 1017.3 hPa NNW 1.4 km/h 3.2 km/h 59% 0.0 mm 76 W/m2
10:23 18.2 °C 10.1 °C 1017.3 hPa ENE 1.4 km/h 8 km/h 59% 0.0 mm 77 W/m2
10:28 18.4 °C 10 °C 1017.3 hPa East 1.4 km/h 6.4 km/h 58% 0.0 mm 79 W/m2
10:33 18.7 °C 10 °C 1017.3 hPa ENE 1.4 km/h 4.8 km/h 57% 0.0 mm 81 W/m2
10:38 18.8 °C 10.4 °C 1017.3 hPa Calm   3.2 km/h 58% 0.0 mm 83 W/m2
10:43 18.9 °C 10.2 °C 1017.3 hPa ESE 4.7 km/h 6.4 km/h 57% 0.0 mm 84 W/m2
10:48 19.1 °C 10.4 °C 1017.3 hPa East 3.2 km/h 11.3 km/h 57% 0.0 mm 88 W/m2
10:54 19.3 °C 10.3 °C 1017.3 hPa ENE 4.7 km/h 6.4 km/h 56% 0.0 mm 88 W/m2
10:59 19.4 °C 10.1 °C 1017.3 hPa ENE 4.7 km/h 11.3 km/h 55% 0.0 mm 88 W/m2
11:04 19.4 °C 10.1 °C 1017.3 hPa NE 1.4 km/h 4.8 km/h 55% 0.0 mm 90 W/m2
11:09 19.4 °C 10.4 °C 1017.3 hPa SSE 1.4 km/h 9.7 km/h 56% 0.0 mm 91 W/m2
11:14 19.5 °C 10.5 °C 1017.3 hPa NE 4.7 km/h 6.4 km/h 56% 0.0 mm 91 W/m2
11:19 19.6 °C 10.6 °C 1017.3 hPa ESE 3.2 km/h 4.8 km/h 56% 0.0 mm 93 W/m2
11:24 19.7 °C 10.7 °C 1017.3 hPa ENE 3.2 km/h 3.2 km/h 56% 0.0 mm 98 W/m2
11:29 19.9 °C 10.6 °C 1017.3 hPa NE 4.7 km/h 8 km/h 55% 0.0 mm 104 W/m2
11:34 19.9 °C 10.9 °C 1017.3 hPa East 1.4 km/h 6.4 km/h 56% 0.0 mm 105 W/m2
11:39 20.2 °C 10.9 °C 1016.9 hPa NNE 1.4 km/h 4.8 km/h 55% 0.0 mm 153 W/m2
11:44 20.4 °C 11.1 °C 1016.9 hPa SE 1.4 km/h 6.4 km/h 55% 0.0 mm 461 W/m2
11:49 20.7 °C 11.1 °C 1016.9 hPa North 1.4 km/h 8 km/h 54% 0.0 mm 501 W/m2
11:54 20.8 °C 11.2 °C 1016.9 hPa Calm   4.8 km/h 54% 0.0 mm 512 W/m2
11:59 20.9 °C 11.2 °C 1016.9 hPa East 1.4 km/h 8 km/h 54% 0.0 mm 526 W/m2
12:04 21.2 °C 11.5 °C 1016.9 hPa ENE 4.7 km/h 12.9 km/h 54% 0.0 mm 550 W/m2
12:09 21.5 °C 11.8 °C 1016.9 hPa SE 1.4 km/h 3.2 km/h 54% 0.0 mm 559 W/m2
12:14 22 °C 12 °C 1016.9 hPa ENE 4.7 km/h 12.9 km/h 53% 0.0 mm 564 W/m2
12:19 22.4 °C 11.8 °C 1016.9 hPa ESE 1.4 km/h 6.4 km/h 51% 0.0 mm 554 W/m2
12:24 22.7 °C 12 °C 1016.9 hPa NW 1.4 km/h 6.4 km/h 51% 0.0 mm 531 W/m2
12:29 22.7 °C 12 °C 1016.6 hPa ESE 4.7 km/h 6.4 km/h 51% 0.0 mm 534 W/m2
12:34 22.9 °C 12.2 °C 1016.6 hPa ENE 3.2 km/h 4.8 km/h 51% 0.0 mm 557 W/m2
12:39 22.9 °C 12.2 °C 1016.6 hPa North 6.4 km/h 8 km/h 51% 0.0 mm 580 W/m2
12:44 22.9 °C 12.2 °C 1016.6 hPa ENE 1.4 km/h 8 km/h 51% 0.0 mm 596 W/m2
12:49 23.1 °C 12.1 °C 1016.6 hPa NNW 1.4 km/h 4.8 km/h 50% 0.0 mm 606 W/m2
12:54 23.2 °C 12.5 °C 1016.6 hPa Calm   8 km/h 51% 0.0 mm 615 W/m2
12:59 23.3 °C 12.3 °C 1016.6 hPa North 4.7 km/h 4.8 km/h 50% 0.0 mm 541 W/m2
13:04 23.3 °C 12.6 °C 1016.6 hPa East 1.4 km/h 4.8 km/h 51% 0.0 mm 540 W/m2
13:09 23.5 °C 12.5 °C 1016.3 hPa NE 3.2 km/h 6.4 km/h 50% 0.0 mm 533 W/m2
13:14 23.7 °C 12.7 °C 1016.3 hPa Calm   4.8 km/h 50% 0.0 mm 526 W/m2
13:19 23.9 °C 12.8 °C 1016.3 hPa North 1.4 km/h 4.8 km/h 50% 0.0 mm 527 W/m2
13:24 23.8 °C 13.1 °C 1016.3 hPa NNE 1.4 km/h 1.6 km/h 51% 0.0 mm 596 W/m2
13:29 24 °C 12.9 °C 1016.3 hPa North 1.4 km/h 4.8 km/h 50% 0.0 mm 559 W/m2
13:34 24.1 °C 13 °C 1016.3 hPa ESE 3.2 km/h 3.2 km/h 50% 0.0 mm 287 W/m2
13:39 24.2 °C 13.4 °C 1016.3 hPa Calm   4.8 km/h 51% 0.0 mm 332 W/m2
13:44 24.2 °C 13.1 °C 1016.3 hPa Calm   3.2 km/h 50% 0.0 mm 265 W/m2
13:49 24.3 °C 13.2 °C 1016.3 hPa ESE 1.4 km/h 4.8 km/h 50% 0.0 mm 348 W/m2
13:54 24.3 °C 13.2 °C 1016.3 hPa Calm   3.2 km/h 50% 0.0 mm 413 W/m2
13:59 24.5 °C 13.7 °C 1016.3 hPa ENE 4.7 km/h 6.4 km/h 51% 0.0 mm 322 W/m2
14:04 24.7 °C 13.6 °C 1016.3 hPa ESE 3.2 km/h 3.2 km/h 50% 0.0 mm 287 W/m2
14:09 24.7 °C 13.6 °C 1015.9 hPa East 1.4 km/h 3.2 km/h 50% 0.0 mm 274 W/m2
14:14 24.7 °C 13.6 °C 1015.9 hPa Calm   1.6 km/h 50% 0.0 mm 276 W/m2
14:19 24.8 °C 13.4 °C 1015.9 hPa SE 1.4 km/h 4.8 km/h 49% 0.0 mm 323 W/m2
14:24 24.8 °C 13.4 °C 1015.9 hPa NE 1.4 km/h 4.8 km/h 49% 0.0 mm 339 W/m2
14:29 24.9 °C 13.5 °C 1015.9 hPa SSE 3.2 km/h 4.8 km/h 49% 0.0 mm 274 W/m2
14:34 24.9 °C 13.5 °C 1015.6 hPa East 1.4 km/h 3.2 km/h 49% 0.0 mm 214 W/m2
14:39 24.9 °C 13.8 °C 1015.6 hPa Calm   4.8 km/h 50% 0.0 mm 223 W/m2
14:44 24.9 °C 13.5 °C 1015.6 hPa East 1.4 km/h 3.2 km/h 49% 0.0 mm 209 W/m2
14:49 24.9 °C 13.5 °C 1015.6 hPa Calm   3.2 km/h 49% 0.0 mm 192 W/m2
14:54 24.8 °C 13.4 °C 1015.2 hPa Calm   3.2 km/h 49% 0.0 mm 197 W/m2
14:59 24.9 °C 13.8 °C 1015.2 hPa NE 3.2 km/h 3.2 km/h 50% 0.0 mm 262 W/m2
15:04 24.9 °C 13.8 °C 1015.2 hPa ESE 1.4 km/h 3.2 km/h 50% 0.0 mm 232 W/m2
15:09 25.1 °C 13.6 °C 1015.2 hPa ENE 3.2 km/h 3.2 km/h 49% 0.0 mm 199 W/m2
15:14 25.2 °C 13.7 °C 1015.2 hPa East 3.2 km/h 6.4 km/h 49% 0.0 mm 225 W/m2
15:20 25.2 °C 14 °C 1015.2 hPa ESE 1.4 km/h 1.6 km/h 50% 0.0 mm 234 W/m2
15:25 25.2 °C 14 °C 1014.9 hPa ENE 1.4 km/h 6.4 km/h 50% 0.0 mm 218 W/m2
15:30 25.3 °C 14.1 °C 1014.9 hPa Calm   4.8 km/h 50% 0.0 mm 186 W/m2
15:35 25.3 °C 14.1 °C 1014.6 hPa ENE 3.2 km/h 6.4 km/h 50% 0.0 mm 183 W/m2
15:40 25.3 °C 14.1 °C 1014.6 hPa ENE 3.2 km/h 4.8 km/h 50% 0.0 mm 183 W/m2
15:45 25.3 °C 14.1 °C 1014.6 hPa ESE 3.2 km/h 6.4 km/h 50% 0.0 mm 172 W/m2
15:50 25.3 °C 14.1 °C 1014.6 hPa ENE 3.2 km/h 4.8 km/h 50% 0.0 mm 165 W/m2
15:55 25.2 °C 14 °C 1014.6 hPa ENE 1.4 km/h 3.2 km/h 50% 0.0 mm 127 W/m2
16:00 25.2 °C 14.3 °C 1014.2 hPa Calm   3.2 km/h 51% 0.0 mm 125 W/m2
16:05 25.1 °C 14.3 °C 1014.2 hPa Calm   1.6 km/h 51% 0.0 mm 132 W/m2
16:10 25.1 °C 14.8 °C 1014.2 hPa ESE 1.4 km/h 1.6 km/h 53% 0.0 mm 135 W/m2
16:15 25.1 °C 14.3 °C 1014.2 hPa ESE 1.4 km/h 1.6 km/h 51% 0.0 mm 134 W/m2
16:21 25.2 °C 14.3 °C 1014.2 hPa ESE 3.2 km/h 6.4 km/h 51% 0.0 mm 127 W/m2
16:26 25.2 °C 14.3 °C 1014.2 hPa East 3.2 km/h 3.2 km/h 51% 0.0 mm 125 W/m2
16:31 25.2 °C 14.6 °C 1013.9 hPa ESE 1.4 km/h 1.6 km/h 52% 0.0 mm 127 W/m2
16:36 25.2 °C 14.6 °C 1013.9 hPa Calm     52% 0.0 mm 116 W/m2
16:41 25.3 °C 14.4 °C 1013.9 hPa NE 1.4 km/h 4.8 km/h 51% 0.0 mm 104 W/m2
16:46 25.3 °C 15 °C 1013.9 hPa NE 1.4 km/h 1.6 km/h 53% 0.0 mm 104 W/m2
16:51 25.4 °C 14.8 °C 1013.9 hPa ENE 1.4 km/h 4.8 km/h 52% 0.0 mm 105 W/m2
16:56 25.3 °C 14.7 °C 1013.5 hPa ENE 1.4 km/h 3.2 km/h 52% 0.0 mm 105 W/m2
17:01 25.3 °C 14.4 °C 1013.5 hPa Calm   1.6 km/h 51% 0.0 mm 95 W/m2
17:06 25.3 °C 14.7 °C 1013.5 hPa ENE 1.4 km/h 1.6 km/h 52% 0.0 mm 86 W/m2
17:11 25.2 °C 14.3 °C 1013.5 hPa East 1.4 km/h 3.2 km/h 51% 0.0 mm 84 W/m2
17:16 25.3 °C 14.7 °C 1013.5 hPa SSE 4.7 km/h 6.4 km/h 52% 0.0 mm 88 W/m2
17:21 25.2 °C 14.6 °C 1013.5 hPa Calm   6.4 km/h 52% 0.0 mm 91 W/m2
17:26 25.3 °C 15 °C 1013.5 hPa Calm     53% 0.0 mm 91 W/m2
17:31 25.2 °C 14.9 °C 1013.5 hPa Calm   6.4 km/h 53% 0.0 mm 95 W/m2
17:36 25.2 °C 14.9 °C 1013.5 hPa East 1.4 km/h 3.2 km/h 53% 0.0 mm 88 W/m2
17:41 25.2 °C 14.9 °C 1013.5 hPa Calm   4.8 km/h 53% 0.0 mm 84 W/m2
17:46 25.2 °C 15.5 °C 1013.5 hPa Calm   1.6 km/h 55% 0.0 mm 83 W/m2
17:51 25.2 °C 15.2 °C 1013.5 hPa Calm   3.2 km/h 54% 0.0 mm 86 W/m2
17:56 25.1 °C 15.4 °C 1013.5 hPa Calm   1.6 km/h 55% 0.0 mm 81 W/m2
18:01 25.1 °C 15.4 °C 1013.5 hPa Calm   3.2 km/h 55% 0.0 mm 77 W/m2
18:06 25 °C 15.3 °C 1013.5 hPa Calm   1.6 km/h 55% 0.0 mm 74 W/m2
18:11 25 °C 15.6 °C 1013.5 hPa Calm     56% 0.0 mm 69 W/m2
18:16 25 °C 15.6 °C 1013.2 hPa Calm     56% 0.0 mm 67 W/m2
18:21 24.9 °C 15.5 °C 1013.2 hPa Calm     56% 0.0 mm 63 W/m2
18:26 24.8 °C 15.7 °C 1013.5 hPa Calm     57% 0.0 mm 54 W/m2
18:31 24.8 °C 15.7 °C 1013.2 hPa Calm     57% 0.0 mm 49 W/m2
18:36 24.7 °C 15.3 °C 1013.2 hPa Calm     56% 0.0 mm 70 W/m2
18:41 24.7 °C 15.6 °C 1013.2 hPa Calm     57% 0.0 mm 44 W/m2
18:46 24.6 °C 15.5 °C 1013.2 hPa Calm     57% 0.0 mm 44 W/m2
18:51 24.4 °C 15.6 °C 1013.2 hPa Calm     58% 0.0 mm 44 W/m2
18:56 24.3 °C 15.5 °C 1013.2 hPa Calm     58% 0.0 mm 40 W/m2
19:01 24.2 °C 15.4 °C 1013.2 hPa Calm   1.6 km/h 58% 0.0 mm 37 W/m2
19:06 24.1 °C 15.6 °C 1013.2 hPa Calm     59% 0.0 mm 30 W/m2
19:11 23.9 °C 15.4 °C 1013.2 hPa Calm   1.6 km/h 59% 0.0 mm 25 W/m2
19:16 23.7 °C 15.2 °C 1013.2 hPa Calm     59% 0.0 mm 19 W/m2
19:21 23.6 °C 15.1 °C 1013.2 hPa Calm     59% 0.0 mm 16 W/m2
19:26 23.4 °C 15.2 °C 1013.2 hPa Calm     60% 0.0 mm 12 W/m2
19:31 23.3 °C 15.1 °C 1013.2 hPa Calm     60% 0.0 mm 5 W/m2
19:36 23.1 °C 14.9 °C 1013.2 hPa Calm     60% 0.0 mm 0 W/m2
19:41 22.9 °C 15 °C 1013.2 hPa Calm     61% 0.0 mm 0 W/m2
19:46 22.7 °C 14.8 °C 1013.2 hPa SE 1.4 km/h 1.6 km/h 61% 0.0 mm 0 W/m2
19:51 22.6 °C 14.7 °C 1013.2 hPa Calm   1.6 km/h 61% 0.0 mm 0 W/m2
19:56 22.4 °C 14.8 °C 1013.2 hPa Calm   1.6 km/h 62% 0.0 mm 0 W/m2
20:01 22.2 °C 14.6 °C 1013.2 hPa Calm     62% 0.0 mm 0 W/m2
20:06 22.1 °C 14.7 °C 1013.2 hPa Calm   1.6 km/h 63% 0.0 mm 0 W/m2
20:11 21.9 °C 14.5 °C 1013.2 hPa Calm     63% 0.0 mm 0 W/m2
20:16 21.8 °C 14.7 °C 1013.2 hPa Calm   1.6 km/h 64% 0.0 mm 0 W/m2
20:22 21.6 °C 14.5 °C 1013.2 hPa Calm     64% 0.0 mm 0 W/m2
20:27 21.4 °C 14.5 °C 1013.2 hPa Calm   1.6 km/h 65% 0.0 mm 0 W/m2
20:32 21.3 °C 14.7 °C 1013.2 hPa Calm     66% 0.0 mm 0 W/m2
20:37 21.2 °C 14.6 °C 1013.2 hPa Calm     66% 0.0 mm 0 W/m2
20:42 21 °C 14.6 °C 1013.2 hPa Calm     67% 0.0 mm 0 W/m2
20:47 20.8 °C 14.4 °C 1013.2 hPa Calm     67% 0.0 mm 0 W/m2
20:52 20.7 °C 14.4 °C 1013.2 hPa Calm     67% 0.0 mm 0 W/m2
20:57 20.6 °C 14.5 °C 1013.5 hPa Calm     68% 0.0 mm 0 W/m2
21:02 20.4 °C 14.3 °C 1013.5 hPa Calm     68% 0.0 mm 0 W/m2
21:07 20.3 °C 14.2 °C 1013.5 hPa Calm     68% 0.0 mm 0 W/m2
21:12 20.2 °C 14.3 °C 1013.9 hPa SE 1.4 km/h 3.2 km/h 69% 0.0 mm 0 W/m2
21:17 20.2 °C 14.3 °C 1013.9 hPa SE 1.4 km/h 1.6 km/h 69% 0.0 mm 0 W/m2
21:22 20.2 °C 14.3 °C 1013.9 hPa Calm     69% 0.0 mm 0 W/m2
21:27 20.2 °C 14.3 °C 1014.2 hPa Calm   3.2 km/h 69% 0.0 mm 0 W/m2
21:32 20.1 °C 14.5 °C 1014.2 hPa Calm   1.6 km/h 70% 0.0 mm 0 W/m2
21:37 20 °C 14.4 °C 1014.2 hPa Calm   3.2 km/h 70% 0.0 mm 0 W/m2
21:42 19.8 °C 14.2 °C 1014.2 hPa SSW 1.4 km/h 1.6 km/h 70% 0.0 mm 0 W/m2
21:47 19.7 °C 14.3 °C 1014.2 hPa Calm     71% 0.0 mm 0 W/m2
21:52 19.6 °C 14.2 °C 1014.2 hPa Calm     71% 0.0 mm 0 W/m2
21:57 19.4 °C 14.2 °C 1014.2 hPa Calm     72% 0.0 mm 0 W/m2
22:02 19.3 °C 14.1 °C 1014.2 hPa Calm     72% 0.0 mm 0 W/m2
22:07 19.2 °C 14.2 °C 1014.2 hPa Calm   1.6 km/h 73% 0.0 mm 0 W/m2
22:12 19.1 °C 14.4 °C 1014.6 hPa Calm   1.6 km/h 74% 0.0 mm 0 W/m2
22:17 18.9 °C 14.2 °C 1014.6 hPa Calm     74% 0.0 mm 0 W/m2
22:22 18.8 °C 14.1 °C 1014.6 hPa Calm     74% 0.0 mm 0 W/m2
22:27 18.7 °C 14.2 °C 1014.6 hPa Calm     75% 0.0 mm 0 W/m2
22:32 18.6 °C 14.1 °C 1014.2 hPa Calm     75% 0.0 mm 0 W/m2
22:37 18.5 °C 14 °C 1014.2 hPa Calm     75% 0.0 mm 0 W/m2
22:42 18.4 °C 13.9 °C 1014.2 hPa Calm     75% 0.0 mm 0 W/m2
22:47 18.3 °C 14 °C 1014.2 hPa Calm     76% 0.0 mm 0 W/m2
22:52 18.2 °C 13.9 °C 1014.6 hPa Calm     76% 0.0 mm 0 W/m2
22:57 18.1 °C 13.8 °C 1014.6 hPa Calm     76% 0.0 mm 0 W/m2
23:02 18.1 °C 13.6 °C 1014.6 hPa Calm     75% 0.0 mm 0 W/m2
23:07 18 °C 13.5 °C 1014.6 hPa Calm     75% 0.0 mm 0 W/m2
23:12 17.9 °C 13.4 °C 1014.6 hPa Calm     75% 0.0 mm 0 W/m2
23:17 17.9 °C 13.4 °C 1014.6 hPa Calm     75% 0.0 mm 0 W/m2
23:22 17.9 °C 13.2 °C 1014.6 hPa Calm     74% 0.0 mm 0 W/m2
23:27 17.8 °C 13.1 °C 1014.6 hPa Calm     74% 0.0 mm 0 W/m2
23:32 17.7 °C 13 °C 1014.6 hPa Calm     74% 0.0 mm 0 W/m2
23:37 17.7 °C 13 °C 1014.6 hPa Calm     74% 0.0 mm 0 W/m2
23:42 17.6 °C 12.9 °C 1014.6 hPa Calm     74% 0.0 mm 0 W/m2
23:47 17.6 °C 12.9 °C 1014.6 hPa Calm     74% 0.0 mm 0 W/m2
23:52 17.5 °C 12.6 °C 1014.6 hPa Calm     73% 0.0 mm 0 W/m2
23:57 17.4 °C 12.5 °C 1014.6 hPa Calm     73% 0.0 mm 0 W/m2
Juneau County Weather
Compliments of Weather Underground - 4 mb